Location: Miles
(41.4492°N, 81.6087°W)
Time: 15:38:20
(UTC+00:00)

Transit 2A - All Passes

Search period start: 13 September 2024 00:00
Search period end: 23 September 2024 00:00
Orbit: 590 x 961 km, 66.7° (Epoch: 13 September)

Date Brightness Start Highest point End Pass type
(mag) Time Alt. Az. Time Alt. Az. Time Alt. Az.
13 Sep - 00:40:22 10° SW 00:46:13 77° WNW 00:52:33 10° NNE visible
13 Sep - 02:26:25 10° W 02:30:30 18° NW 02:34:43 10° N visible
13 Sep - 07:44:50 10° N 07:49:25 21° NE 07:53:49 10° E visible
13 Sep - 09:27:13 10° NNW 09:33:30 89° WSW 09:39:17 10° SSE visible
13 Sep - 11:12:50 10° WNW 11:15:38 14° W 11:18:21 10° SW daylight
13 Sep - 22:27:19 10° ESE 22:28:50 11° E 22:30:21 10° E daylight
14 Sep - 00:05:01 10° SSW 00:10:49 76° ESE 00:17:07 10° NNE visible
14 Sep - 01:49:56 10° W 01:54:42 24° NW 01:59:41 10° N visible
14 Sep - 07:09:51 10° N 07:13:35 16° NE 07:17:12 10° ENE visible
14 Sep - 08:51:49 10° NNW 08:58:04 66° ENE 09:03:49 10° SE visible
14 Sep - 10:36:13 10° WNW 10:40:34 21° WSW 10:44:42 10° SSW visible
14 Sep - 23:29:52 10° S 23:35:29 53° ESE 23:41:34 10° NE daylight
15 Sep - 01:13:43 10° WSW 01:18:59 31° NW 01:24:32 10° NNE visible
15 Sep - 06:35:07 10° N 06:37:40 12° NNE 06:40:09 10° NE visible
15 Sep - 08:16:30 10° NNW 08:22:32 47° NE 08:28:07 10° SE visible
15 Sep - 10:00:11 10° NW 10:05:26 30° WSW 10:10:21 10° SSW visible
15 Sep - 22:54:58 10° S 23:00:14 36° ESE 23:05:52 10° NE daylight
16 Sep - 00:37:43 10° WSW 00:43:20 41° NW 00:49:19 10° NNE visible
16 Sep - 02:26:23 10° NW 02:28:21 11° NNW 02:30:20 10° N visible
16 Sep - 07:41:14 10° NNW 07:46:54 34° NE 07:52:13 10° ESE visible
16 Sep - 09:24:24 10° NW 09:30:13 44° WSW 09:35:35 10° S visible
16 Sep - 22:20:25 10° SSE 22:25:04 25° ESE 22:29:58 10° NE daylight
17 Sep - 00:01:56 10° SW 00:07:46 57° NW 00:14:00 10° NNE visible
17 Sep - 01:49:04 10° WNW 01:52:24 15° NNW 01:55:47 10° N visible
17 Sep - 07:06:03 10° NNW 07:11:12 26° NE 07:16:05 10° E visible
17 Sep - 08:48:47 10° NW 08:54:56 65° WSW 09:00:33 10° SSE visible
17 Sep - 21:46:21 10° SE 21:49:57 17° ESE 21:53:41 10° ENE daylight
17 Sep - 23:26:22 10° SSW 23:32:16 80° WNW 23:38:37 10° NNE daylight
18 Sep - 01:12:18 10° W 01:16:31 19° NW 01:20:51 10° N visible
18 Sep - 06:30:57 10° N 06:35:25 20° NE 06:39:42 10° E visible
18 Sep - 08:13:17 10° NNW 08:19:32 88° ENE 08:25:16 10° SSE visible
18 Sep - 09:58:46 10° WNW 10:01:42 14° W 10:04:32 10° SW visible
18 Sep - 21:13:44 10° ESE 21:14:54 11° E 21:16:02 10° E daylight
18 Sep - 22:50:59 10° SSW 22:56:51 74° ESE 23:03:09 10° NNE daylight
19 Sep - 00:35:50 10° W 00:40:42 24° NW 00:45:46 10° N visible
19 Sep - 05:55:58 10° N 05:59:33 15° NE 06:03:00 10° ENE visible
19 Sep - 07:37:53 10° NNW 07:44:04 63° ENE 07:49:45 10° SE visible
19 Sep - 09:22:11 10° WNW 09:26:37 21° WSW 09:30:46 10° SSW visible
19 Sep - 22:15:52 10° S 22:21:31 51° ESE 22:27:34 10° NE daylight
19 Sep - 23:59:36 10° WSW 00:04:58 32° NW 00:10:35 10° NNE visible
20 Sep - 05:21:17 10° N 05:23:36 12° NNE 05:25:52 10° NE visible
20 Sep - 07:02:31 10° NNW 07:08:30 45° NE 07:14:01 10° SE visible
20 Sep - 08:46:10 10° NW 08:51:27 31° WSW 08:56:21 10° SSW visible
20 Sep - 21:40:59 10° S 21:46:14 35° ESE 21:51:50 10° NE daylight
20 Sep - 23:23:36 10° WSW 23:29:18 43° NW 23:35:20 10° NNE daylight
21 Sep - 01:12:04 10° NW 01:14:16 12° NNW 01:16:29 10° N visible
21 Sep - 06:27:16 10° NNW 06:32:51 33° NE 06:38:04 10° ESE visible
21 Sep - 08:10:23 10° NW 08:16:12 46° WSW 08:21:33 10° S visible
21 Sep - 21:06:25 10° SSE 21:11:03 24° ESE 21:15:53 10° NE daylight
21 Sep - 22:47:49 10° SW 22:53:42 60° NW 22:59:59 10° NNE daylight
22 Sep - 00:34:50 10° WNW 00:38:18 15° NW 00:41:49 10° N visible
22 Sep - 05:52:04 10° N 05:57:07 25° NE 06:01:53 10° E visible
22 Sep - 07:34:45 10° NW 07:40:52 68° WSW 07:46:27 10° SSE visible
22 Sep - 20:32:24 10° SE 20:35:54 16° ESE 20:39:32 10° ENE daylight
22 Sep - 22:12:14 10° SSW 22:18:12 83° WNW 22:24:35 10° NNE daylight
